SCP
0 -0 0 0 -0 -0 -0 0 0 0 0 0 0 0 0 0 0 0 0 0 0 0 0 0 0 0 0 0 0 0 0 0 0 0 0 0 0 0 0 0 0 0 0
-0 0 0 -0 -0 -0 0 0 0 0 0 0 0 0 0 0 0 0 0 0 0 0 0 0 0 0 0 0 0 0 0 0 0 -0 0 0 0 0 0 0 0 0 0
-0 0 0 0 0 0 0 0 0 0 0 0 0 0 0 0 0 0 0 0 0 0 0 0 0 0 0 0 0 0 0 0 0 0 -0 -0 0 0 0 0 0 0 0
0 0 0 0 0 0 0 0 0 0 0 0 0 0 0 0 0 0 0 0 0 0 0 0 0 0 0 0 0 0 0 0 0 0 -0 -0 0 0 0 0 0 0 0
0 0 0 0 0 0 0 0 0 0 0 0 0 0 0 0 0 0 0 0 0 0 0 0 0 0 0 0 0 0 0 0 0 0 -0 -0 0 0 0 0 0 0 0
0 0 0 0 0 0 0 0 0 0 0 0 0 0 0 0 0 0 0 0 0 0 0 0 0 0 0 0 0 0 0 0 0 0 0 0 0 1 0 0 0 0 0
0 0 0 0 0 0 0 1 1 1 0 0 0 0 0 0 0 0 0 0 0 0 0 0 0 0 0 0 0 0 0 0 0 0 0 0 0 1 0 0 0 0 0
0 0 0 0 0 0 0 0 0 0 1 1 0 0 0 0 0 0 0 0 0 0 0 0 0 0 0 0 0 0 0 0 0 0 0 0 1 1 1 0 0 0 0
0 0 0 0 0 0 0 0 1 0 0 0 0 0 0 0 0 0 0 0 0 0 0 0 0 0 0 0 0 0 0 0 0 0 0 0 1 1 1 0 0 0 0
0 0 0 0 0 0 0 0 0 0 0 0 0 0 0 0 0 0 0 0 0 0 0 0 0 0 0 0 0 0 0 0 0 0 0 0 0 0 1 1 1 0 0
0 0 0 0 0 0 0 0 0 0 0 0 0 0 0 0 0 0 0 0 0 0 0 0 0 0 0 -0 0 0 0 0 0 0 0 0 0 0 0 1 1 1 1
0 0 0 0 0 0 0 0 0 0 0 0 0 0 0 0 0 0 0 0 0 0 0 0 0 0 0 0 0 0 1 1 1 1 0 0 0 0 0 0 1 0 0
0 0 0 0 0 0 0 0 0 0 0 0 0 0 0 0 0 0 0 0 0 0 0 0 0 0 0 0 0 0 0 0 1 1 1 1 0 1 0 0 1 0 0
0 0 0 0 0 0 0 0 0 0 0 0 0 0 0 0 0 0 0 0 0 0 0 0 0 0 0 0 0 0 0 0 0 1 1 0 0 0 0 1 0 0 0
0 0 0 0 0 0 0 0 0 0 0 0 0 0 0 0 0 0 0 0 0 0 0 0 0 0 0 0 0 0 0 0 0 1 1 0 0 0 0 0 0 0 0
0 0 0 0 0 0 0 0 0 0 0 0 0 0 0 0 0 0 0 0 0 0 0 0 0 0 0 0 0 0 0 0 0 0 1 1 0 0 0 0 1 0 0
0 0 -0 0 0 0 0 0 0 0 0 0 0 0 0 0 0 0 0 0 0 0 0 0 0 0 0 0 0 0 0 0 0 0 0 1 0 0 0 0 0 1 0
0 0 0 0 0 0 0 0 0 0 0 0 0 0 0 0 0 0 0 0 0 0 0 0 0 0 0 0 0 0 0 0 0 0 0 0 0 0 0 0 1 0 0
0 0 0 0 0 0 0 0 0 0 0 0 0 0 0 0 0 0 0 0 0 0 0 0 0 0 0 0 0 0 0 0 0 0 0 0 0 -0 -0 0 0 0 0
0 0 0 0 0 0 0 0 0 0 0 0 0 0 0 0 0 0 0 0 0 0 0 0 0 0 0 0 0 0 0 0 0 0 0 0 0 -0 -0 -0 -0 -0 0
0 0 0 0 0 0 0 0 0 0 0 0 0 0 0 0 0 0 0 0 0 0 0 0 0 0 0 0 0 0 0 0 0 0 0 0 0 0 -0 -0 -0 -0 -0
0 0 0 0 0 0 0 0 0 0 0 0 0 0 0 0 0 0 0 0 0 0 0 0 0 0 0 0 0 0 0 0 0 0 0 0 0 0 0 0 0 0 0
0 0 0 0 0 0 0 0 0 0 0 0 0 0 0 0 0 0 0 0 0 0 0 0 0 0 0 0 0 0 0 0 0 0 0 0 0 0 0 0 0 0 0
0 0 0 0 0 0 0 0 0 0 0 0 0 0 0 0 0 0 0 0 0 0 0 0 0 0 0 0 0 0 0 0 0 0 0 0 0 0 0 0 0 0 0
0 0 0 0 0 0 0 0 0 0 0 0 0 0 0 0 0 0 0 0 0 0 0 0 0 0 0 0 0 0 0 0 0 0 0 0 0 0 0 0 0 0 0
0 0 0 0 0 0 0 0 0 0 0 0 0 0 0 0 0 0 0 0 0 0 0 0 0 0 0 0 0 0 0 0 0 0 -0 0 0 0 0 0 0 0 0
Wind_Speed_500mb
9 6 10 10 10 11 12 12 13 14 14 15 15 15 16 17 16 13 9 6 6 7 7 7 7 8 10 12 14 14 12 6 5 5 5 3 2 2 3 4 3 7 20
11 9 9 9 10 11 11 12 13 14 15 15 15 15 16 16 17 18 18 17 16 15 14 15 15 14 12 11 11 11 10 10 7 8 8 7 7 7 7 5 2 15 18
12 11 9 9 10 10 10 10 12 13 12 14 13 16 19 19 18 17 19 21 22 22 23 22 21 20 19 18 17 14 12 9 12 12 12 8 13 16 7 8 10 12 11
12 9 7 10 10 10 11 10 10 12 11 12 16 22 23 22 21 22 24 27 29 30 29 29 28 26 25 24 23 21 17 16 13 18 17 12 17 21 13 13 12 14 14
14 11 11 12 10 11 12 11 10 10 12 14 17 18 21 24 25 27 27 30 33 33 35 36 35 34 32 31 29 28 26 20 16 13 17 20 21 24 21 15 14 15 15
12 13 16 16 16 12 10 11 10 10 12 15 19 22 25 27 27 26 29 29 30 31 34 37 39 39 36 34 34 34 33 30 21 16 18 21 22 28 29 20 18 18 20
15 17 18 22 19 13 12 12 14 15 15 18 21 23 28 30 28 28 30 31 31 30 31 32 35 36 36 39 40 40 40 38 28 21 23 22 22 37 28 22 21 21 22
18 21 23 31 24 16 16 18 17 18 18 21 23 26 29 30 30 33 34 35 35 32 30 31 31 32 33 38 42 41 45 45 36 27 30 28 36 40 30 24 23 21 21
22 24 26 24 29 30 20 20 21 22 21 24 27 27 26 28 31 32 31 29 26 26 27 29 29 30 33 38 42 52 49 48 46 34 30 26 36 39 34 28 24 20 20
24 24 25 26 24 21 21 22 22 23 21 24 25 24 24 27 24 30 34 33 29 27 28 29 28 29 29 30 35 42 49 53 61 52 48 39 47 46 41 33 28 20 17
26 29 29 27 26 23 19 20 23 18 19 20 22 22 21 20 27 29 36 37 41 41 42 42 42 42 41 38 35 32 40 38 41 43 44 52 46 45 45 38 34 27 23
32 30 30 28 25 22 20 19 19 19 17 18 21 24 23 28 33 35 32 40 35 33 31 34 36 36 30 23 28 37 29 33 37 40 46 53 54 53 51 45 40 33 28
31 32 32 28 24 20 17 15 15 17 18 22 28 34 32 28 30 29 29 30 32 36 30 28 26 21 26 20 22 27 30 32 32 46 45 54 60 57 59 51 39 38 33
32 35 35 30 24 22 18 16 17 17 18 20 29 32 29 27 31 30 30 30 30 31 33 32 28 28 25 26 24 26 30 27 29 34 44 49 55 62 68 66 41 42 37
35 38 34 30 29 24 20 16 15 17 18 21 23 30 31 28 29 27 27 28 30 31 31 32 32 32 29 27 26 26 25 28 28 31 35 39 41 55 68 65 49 45 41
33 34 31 28 26 21 19 18 17 18 18 20 22 28 29 27 29 25 27 29 31 32 32 33 34 33 32 31 29 29 29 27 28 28 32 35 36 47 55 72 51 53 47
27 38 37 28 24 21 19 18 17 16 17 18 21 26 27 28 30 28 29 30 33 31 32 31 31 30 29 29 31 31 30 28 28 33 29 30 37 41 51 65 79 63 52
25 38 45 31 22 23 23 21 17 17 17 19 20 21 26 28 33 29 30 32 35 32 32 33 32 30 29 28 31 30 27 24 23 26 33 25 22 33 51 25 65 73 40
23 32 39 35 25 22 23 19 18 19 16 18 19 22 29 30 34 34 31 33 33 31 32 33 33 33 30 30 30 27 25 18 20 19 25 23 25 19 39 48 37 39 43
18 30 38 37 30 23 19 18 17 16 15 16 18 24 31 31 37 35 29 32 32 31 30 33 33 32 29 32 27 23 18 14 14 16 19 16 19 21 18 12 33 35 35
11 24 34 37 29 20 17 17 15 14 15 16 19 26 30 33 36 33 30 30 32 31 35 36 33 31 28 31 27 22 13 5 10 13 18 19 16 9 11 7 11 22 31
6 17 26 36 28 19 15 16 15 14 14 17 20 25 33 36 34 31 33 31 33 30 34 36 37 34 28 32 31 25 17 4 13 10 8 11 14 9 3 3 5 13 12
4 11 19 32 25 19 17 16 17 19 17 18 21 24 29 32 35 36 33 31 31 31 31 35 35 32 31 26 25 19 16 13 30 7 9 9 7 8 4 6 8 7 13
5 5 9 27 24 18 15 15 18 16 18 21 23 25 26 31 33 31 32 31 32 32 33 31 30 30 34 32 26 24 14 19 15 13 8 7 8 2 1 8 7 14 12
8 3 4 23 18 20 12 13 14 16 17 19 21 23 27 26 28 32 32 32 33 31 34 34 34 38 32 29 29 30 26 18 14 18 24 15 7 9 4 6 10 7 8
10 4 3 14 9 13 11 12 14 16 17 17 20 21 22 24 25 33 32 30 31 34 35 31 30 30 30 27 28 23 22 17 18 18 25 24 16 3 7 6 7 6 5
Wind_Direction_500mb
88 96 70 68 69 62 49 39 31 28 26 21 11 3 355 346 339 334 326 309 294 293 299 308 324 346 2 7 6 1 349 313 277 277 302 304 309 321 308 305 271 316 263
105 95 67 66 63 56 47 36 30 26 25 21 15 7 354 338 323 313 307 302 296 287 277 279 290 301 311 325 340 348 341 319 289 255 273 275 282 270 264 283 236 252 262
102 81 53 58 59 53 45 34 26 21 20 14 4 351 340 322 304 291 282 278 278 278 279 276 272 275 288 297 301 308 316 300 270 270 265 239 268 278 274 281 284 272 278
87 75 67 37 30 23 20 15 16 11 8 1 352 346 340 334 319 301 293 285 275 269 266 267 269 270 272 275 283 291 293 296 285 264 272 256 241 260 265 282 281 274 277
57 40 9 4 360 353 350 354 352 345 349 342 345 346 342 338 333 322 315 302 285 275 271 268 266 263 262 263 267 274 281 285 287 290 269 248 240 250 267 273 280 273 250
43 19 347 347 329 317 324 328 331 327 326 323 329 339 341 341 339 333 328 320 308 293 281 274 271 269 267 264 264 266 268 271 274 285 270 244 228 246 255 271 272 270 257
29 19 2 358 345 308 301 303 303 303 298 309 329 332 337 339 337 334 329 326 319 308 294 287 280 278 275 271 265 263 266 266 265 265 263 246 239 247 252 268 272 268 253
28 22 17 360 2 348 324 321 317 313 309 315 318 324 328 331 328 328 322 316 309 299 293 291 289 281 271 269 262 266 264 262 262 270 265 251 249 253 250 259 263 266 252
32 24 11 19 16 8 358 346 338 333 322 315 319 323 330 337 338 339 339 334 323 315 311 304 301 298 286 276 267 257 258 257 254 246 258 254 253 254 247 251 252 251 247
31 21 15 10 7 7 347 344 340 338 329 324 327 331 341 360 348 340 334 328 321 316 310 305 302 301 307 309 281 266 261 256 254 251 259 259 249 242 236 236 235 226 224
23 18 10 4 360 355 353 353 359 355 355 0 2 352 6 0 346 350 331 321 315 311 309 305 301 300 301 316 303 283 270 260 257 253 236 248 253 239 229 229 226 219 222
23 16 13 8 10 8 356 9 11 17 10 5 0 353 8 356 346 347 342 342 340 333 329 319 316 320 315 297 294 298 278 255 252 250 243 249 246 246 234 223 225 218 219
22 17 12 8 14 28 19 21 23 32 21 15 4 351 350 357 355 1 360 357 2 355 355 353 346 340 329 322 303 294 290 274 265 246 241 249 246 245 237 227 229 220 215
25 20 13 16 29 32 38 31 24 30 26 15 360 1 5 6 6 10 9 6 2 359 358 358 353 342 337 329 319 309 302 285 274 267 258 254 251 244 237 224 228 223 215
24 21 18 24 36 40 39 29 25 24 16 17 15 9 14 10 9 5 3 2 358 355 355 355 349 347 341 329 321 313 305 304 288 273 277 269 262 247 241 216 223 219 220
27 24 22 30 35 32 37 31 24 10 15 14 14 15 12 14 9 5 357 354 351 351 349 346 342 345 344 336 330 317 306 303 302 296 278 274 266 250 242 223 218 223 222
24 22 28 29 31 34 33 28 17 17 17 20 16 8 12 13 7 6 353 349 346 348 347 343 341 338 337 339 336 333 318 301 303 299 297 291 284 279 246 232 219 216 219
24 20 20 27 31 30 34 29 28 25 23 18 15 11 16 8 0 4 353 351 352 353 351 350 345 340 339 340 337 338 326 312 305 304 301 298 307 273 239 236 209 217 192
23 21 19 20 23 31 24 29 22 19 20 19 22 14 11 7 4 8 357 358 7 2 360 357 356 350 346 338 336 337 335 338 333 317 300 300 284 304 294 264 300 288 215
20 14 14 19 23 27 17 8 6 7 18 19 18 14 10 8 5 10 2 5 12 4 2 1 358 356 353 340 339 331 333 354 350 342 346 339 306 305 335 31 282 285 294
16 3 13 17 21 32 25 21 10 11 14 15 15 12 12 9 7 8 9 7 8 -0 357 355 357 353 353 345 349 341 309 348 352 354 351 18 7 335 327 37 234 237 236
351 357 11 12 18 28 15 12 16 11 6 13 4 7 6 7 8 10 10 6 2 6 352 358 356 357 352 349 354 342 343 336 353 344 355 30 42 68 56 171 184 186 167
294 353 5 5 10 18 31 11 8 2 4 359 0 358 0 5 7 9 8 4 4 7 353 357 352 354 356 353 0 1 342 340 330 336 51 27 43 52 107 130 159 170 192
260 325 13 0 6 353 22 3 12 11 5 0 357 349 1 1 9 10 8 6 5 9 354 356 354 1 8 8 13 6 342 312 324 322 334 341 315 288 277 197 194 219 228
230 280 338 352 1 0 358 10 17 357 358 357 357 355 356 360 6 10 10 8 8 6 358 357 4 4 14 12 11 5 11 353 341 315 313 318 291 282 257 226 216 230 235
212 229 276 343 348 354 353 345 350 348 349 356 354 2 360 2 4 360 13 11 7 9 4 3 7 4 1 10 9 4 342 350 340 328 317 323 321 316 292 270 281 270 268
Wind_Speed_850mb
9 6 10 10 10 11 12 12 13 14 14 15 15 15 16 17 16 13 9 6 6 7 7 7 7 8 10 12 14 14 12 6 5 5 5 3 2 2 3 4 3 7 20
11 9 9 9 10 11 11 12 13 14 15 15 15 15 16 16 17 18 18 17 16 15 14 15 15 14 12 11 11 11 10 10 7 8 8 7 7 7 7 5 2 15 18
12 11 9 9 10 10 10 10 12 13 12 14 13 16 19 19 18 17 19 21 22 22 23 22 21 20 19 18 17 14 12 9 12 12 12 8 13 16 7 8 10 12 11
12 9 7 10 10 10 11 10 10 12 11 12 16 22 23 22 21 22 24 27 29 30 29 29 28 26 25 24 23 21 17 16 13 18 17 12 17 21 13 13 12 14 14
14 11 11 12 10 11 12 11 10 10 12 14 17 18 21 24 25 27 27 30 33 33 35 36 35 34 32 31 29 28 26 20 16 13 17 20 21 24 21 15 14 15 15
12 13 16 16 16 12 10 11 10 10 12 15 19 22 25 27 27 26 29 29 30 31 34 37 39 39 36 34 34 34 33 30 21 16 18 21 22 28 29 20 18 18 20
15 17 18 22 19 13 12 12 14 15 15 18 21 23 28 30 28 28 30 31 31 30 31 32 35 36 36 39 40 40 40 38 28 21 23 22 22 37 28 22 21 21 22
18 21 23 31 24 16 16 18 17 18 18 21 23 26 29 30 30 33 34 35 35 32 30 31 31 32 33 38 42 41 45 45 36 27 30 28 36 40 30 24 23 21 21
22 24 26 24 29 30 20 20 21 22 21 24 27 27 26 28 31 32 31 29 26 26 27 29 29 30 33 38 42 52 49 48 46 34 30 26 36 39 34 28 24 20 20
24 24 25 26 24 21 21 22 22 23 21 24 25 24 24 27 24 30 34 33 29 27 28 29 28 29 29 30 35 42 49 53 61 52 48 39 47 46 41 33 28 20 17
26 29 29 27 26 23 19 20 23 18 19 20 22 22 21 20 27 29 36 37 41 41 42 42 42 42 41 38 35 32 40 38 41 43 44 52 46 45 45 38 34 27 23
32 30 30 28 25 22 20 19 19 19 17 18 21 24 23 28 33 35 32 40 35 33 31 34 36 36 30 23 28 37 29 33 37 40 46 53 54 53 51 45 40 33 28
31 32 32 28 24 20 17 15 15 17 18 22 28 34 32 28 30 29 29 30 32 36 30 28 26 21 26 20 22 27 30 32 32 46 45 54 60 57 59 51 39 38 33
32 35 35 30 24 22 18 16 17 17 18 20 29 32 29 27 31 30 30 30 30 31 33 32 28 28 25 26 24 26 30 27 29 34 44 49 55 62 68 66 41 42 37
35 38 34 30 29 24 20 16 15 17 18 21 23 30 31 28 29 27 27 28 30 31 31 32 32 32 29 27 26 26 25 28 28 31 35 39 41 55 68 65 49 45 41
33 34 31 28 26 21 19 18 17 18 18 20 22 28 29 27 29 25 27 29 31 32 32 33 34 33 32 31 29 29 29 27 28 28 32 35 36 47 55 72 51 53 47
27 38 37 28 24 21 19 18 17 16 17 18 21 26 27 28 30 28 29 30 33 31 32 31 31 30 29 29 31 31 30 28 28 33 29 30 37 41 51 65 79 63 52
25 38 45 31 22 23 23 21 17 17 17 19 20 21 26 28 33 29 30 32 35 32 32 33 32 30 29 28 31 30 27 24 23 26 33 25 22 33 51 25 65 73 40
23 32 39 35 25 22 23 19 18 19 16 18 19 22 29 30 34 34 31 33 33 31 32 33 33 33 30 30 30 27 25 18 20 19 25 23 25 19 39 48 37 39 43
18 30 38 37 30 23 19 18 17 16 15 16 18 24 31 31 37 35 29 32 32 31 30 33 33 32 29 32 27 23 18 14 14 16 19 16 19 21 18 12 33 35 35
11 24 34 37 29 20 17 17 15 14 15 16 19 26 30 33 36 33 30 30 32 31 35 36 33 31 28 31 27 22 13 5 10 13 18 19 16 9 11 7 11 22 31
6 17 26 36 28 19 15 16 15 14 14 17 20 25 33 36 34 31 33 31 33 30 34 36 37 34 28 32 31 25 17 4 13 10 8 11 14 9 3 3 5 13 12
4 11 19 32 25 19 17 16 17 19 17 18 21 24 29 32 35 36 33 31 31 31 31 35 35 32 31 26 25 19 16 13 30 7 9 9 7 8 4 6 8 7 13
5 5 9 27 24 18 15 15 18 16 18 21 23 25 26 31 33 31 32 31 32 32 33 31 30 30 34 32 26 24 14 19 15 13 8 7 8 2 1 8 7 14 12
8 3 4 23 18 20 12 13 14 16 17 19 21 23 27 26 28 32 32 32 33 31 34 34 34 38 32 29 29 30 26 18 14 18 24 15 7 9 4 6 10 7 8
10 4 3 14 9 13 11 12 14 16 17 17 20 21 22 24 25 33 32 30 31 34 35 31 30 30 30 27 28 23 22 17 18 18 25 24 16 3 7 6 7 6 5
Wind_Direction_850mb
88 96 70 68 69 62 49 39 31 28 26 21 11 3 355 346 339 334 326 309 294 293 299 308 324 346 2 7 6 1 349 313 277 277 302 304 309 321 308 305 271 316 263
105 95 67 66 63 56 47 36 30 26 25 21 15 7 354 338 323 313 307 302 296 287 277 279 290 301 311 325 340 348 341 319 289 255 273 275 282 270 264 283 236 252 262
102 81 53 58 59 53 45 34 26 21 20 14 4 351 340 322 304 291 282 278 278 278 279 276 272 275 288 297 301 308 316 300 270 270 265 239 268 278 274 281 284 272 278
87 75 67 37 30 23 20 15 16 11 8 1 352 346 340 334 319 301 293 285 275 269 266 267 269 270 272 275 283 291 293 296 285 264 272 256 241 260 265 282 281 274 277
57 40 9 4 360 353 350 354 352 345 349 342 345 346 342 338 333 322 315 302 285 275 271 268 266 263 262 263 267 274 281 285 287 290 269 248 240 250 267 273 280 273 250
43 19 347 347 329 317 324 328 331 327 326 323 329 339 341 341 339 333 328 320 308 293 281 274 271 269 267 264 264 266 268 271 274 285 270 244 228 246 255 271 272 270 257
29 19 2 358 345 308 301 303 303 303 298 309 329 332 337 339 337 334 329 326 319 308 294 287 280 278 275 271 265 263 266 266 265 265 263 246 239 247 252 268 272 268 253
28 22 17 360 2 348 324 321 317 313 309 315 318 324 328 331 328 328 322 316 309 299 293 291 289 281 271 269 262 266 264 262 262 270 265 251 249 253 250 259 263 266 252
32 24 11 19 16 8 358 346 338 333 322 315 319 323 330 337 338 339 339 334 323 315 311 304 301 298 286 276 267 257 258 257 254 246 258 254 253 254 247 251 252 251 247
31 21 15 10 7 7 347 344 340 338 329 324 327 331 341 360 348 340 334 328 321 316 310 305 302 301 307 309 281 266 261 256 254 251 259 259 249 242 236 236 235 226 224
23 18 10 4 360 355 353 353 359 355 355 0 2 352 6 0 346 350 331 321 315 311 309 305 301 300 301 316 303 283 270 260 257 253 236 248 253 239 229 229 226 219 222
23 16 13 8 10 8 356 9 11 17 10 5 0 353 8 356 346 347 342 342 340 333 329 319 316 320 315 297 294 298 278 255 252 250 243 249 246 246 234 223 225 218 219
22 17 12 8 14 28 19 21 23 32 21 15 4 351 350 357 355 1 360 357 2 355 355 353 346 340 329 322 303 294 290 274 265 246 241 249 246 245 237 227 229 220 215
25 20 13 16 29 32 38 31 24 30 26 15 360 1 5 6 6 10 9 6 2 359 358 358 353 342 337 329 319 309 302 285 274 267 258 254 251 244 237 224 228 223 215
24 21 18 24 36 40 39 29 25 24 16 17 15 9 14 10 9 5 3 2 358 355 355 355 349 347 341 329 321 313 305 304 288 273 277 269 262 247 241 216 223 219 220
27 24 22 30 35 32 37 31 24 10 15 14 14 15 12 14 9 5 357 354 351 351 349 346 342 345 344 336 330 317 306 303 302 296 278 274 266 250 242 223 218 223 222
24 22 28 29 31 34 33 28 17 17 17 20 16 8 12 13 7 6 353 349 346 348 347 343 341 338 337 339 336 333 318 301 303 299 297 291 284 279 246 232 219 216 219
24 20 20 27 31 30 34 29 28 25 23 18 15 11 16 8 0 4 353 351 352 353 351 350 345 340 339 340 337 338 326 312 305 304 301 298 307 273 239 236 209 217 192
23 21 19 20 23 31 24 29 22 19 20 19 22 14 11 7 4 8 357 358 7 2 360 357 356 350 346 338 336 337 335 338 333 317 300 300 284 304 294 264 300 288 215
20 14 14 19 23 27 17 8 6 7 18 19 18 14 10 8 5 10 2 5 12 4 2 1 358 356 353 340 339 331 333 354 350 342 346 339 306 305 335 31 282 285 294
16 3 13 17 21 32 25 21 10 11 14 15 15 12 12 9 7 8 9 7 8 -0 357 355 357 353 353 345 349 341 309 348 352 354 351 18 7 335 327 37 234 237 236
351 357 11 12 18 28 15 12 16 11 6 13 4 7 6 7 8 10 10 6 2 6 352 358 356 357 352 349 354 342 343 336 353 344 355 30 42 68 56 171 184 186 167
294 353 5 5 10 18 31 11 8 2 4 359 0 358 0 5 7 9 8 4 4 7 353 357 352 354 356 353 0 1 342 340 330 336 51 27 43 52 107 130 159 170 192
260 325 13 0 6 353 22 3 12 11 5 0 357 349 1 1 9 10 8 6 5 9 354 356 354 1 8 8 13 6 342 312 324 322 334 341 315 288 277 197 194 219 228
230 280 338 352 1 0 358 10 17 357 358 357 357 355 356 360 6 10 10 8 8 6 358 357 4 4 14 12 11 5 11 353 341 315 313 318 291 282 257 226 216 230 235
212 229 276 343 348 354 353 345 350 348 349 356 354 2 360 2 4 360 13 11 7 9 4 3 7 4 1 10 9 4 342 350 340 328 317 323 321 316 292 270 281 270 268